Dewpoint
4 4 5 4 4 2 1 2 2 3 4 4 3 2 2 4 1 -0 1 -0 -2 -1 -1 -1 -1 -2 -2 -0 -1 -0 0 1 2 2 3 3 4 5 6 7 7 8 9 8 9 9 12 11 11 11 11 11 13 14 14 14 13 13 13 14 15 15 15 14 13 13 12 12 11 11 11 10 12 13 14 15 14 14 22 16 15 15 14 15 15
3 4 4 2 2 1 -0 -1 -1 -0 2 2 2 -0 -1 -1 -1 -3 -3 -2 -3 -3 -3 -3 -3 -4 -4 -4 -2 -2 -1 -2 -1 0 1 2 2 3 4 5 6 7 8 8 9 10 11 12 12 12 12 12 13 14 13 14 14 14 15 15 15 15 15 14 13 12 12 12 11 11 11 11 11 11 13 14 15 14 13 11 11 10 12 12 14
2 2 2 1 1 0 -1 -2 -3 -1 0 2 0 -1 -2 -2 -1 -3 -4 -4 -4 -4 -4 -4 -5 -5 -5 -4 -3 -2 -2 -3 -2 -0 1 2 2 2 3 3 4 6 8 8 9 11 12 12 12 13 13 13 13 14 14 14 14 14 14 16 15 15 15 15 14 13 12 12 12 11 11 11 11 11 12 14 14 15 14 13 13 12 12 11 11
1 1 0 -0 -0 -0 -1 -2 -4 -4 -2 0 -0 -1 -2 -3 -1 -3 -4 -4 -5 -5 -4 -4 -5 -6 -6 -6 -5 -4 -4 -3 -3 -1 1 1 2 3 3 4 5 6 8 9 10 11 11 11 12 13 13 13 13 13 14 14 13 13 13 13 14 14 14 14 14 13 12 12 11 11 11 10 10 10 10 11 13 14 13 13 12 12 11 10 10
-1 -1 0 -0 -1 -2 -2 -3 -4 -5 -4 -3 -0 -1 -2 -2 -3 -4 -4 -4 -5 -5 -4 -3 -4 -5 -5 -5 -4 -4 -4 -3 -3 -1 1 1 1 2 3 5 6 8 8 8 9 9 9 9 10 11 11 11 12 12 13 13 13 14 13 14 13 13 13 14 14 14 13 12 13 13 12 11 11 11 11 10 12 13 11 11 11 12 12 11 9
-2 -3 -2 -0 -1 -3 -3 -3 -4 -4 -4 -4 -1 -0 -1 -3 -3 -3 -3 -3 -3 -4 -4 -3 -2 -4 -4 -4 -4 -4 -3 -2 -1 -0 -0 0 0 2 6 7 6 6 6 6 6 7 8 9 9 11 11 11 10 11 12 11 12 12 12 12 12 12 11 11 11 11 11 11 12 12 12 13 12 12 12 11 10 11 11 11 7 8 10 10 11
-2 -3 -3 -2 -1 -3 -3 -4 -3 -4 -3 -3 -1 0 -1 -2 -3 -3 -2 -2 -2 -2 -2 -2 -2 -3 -2 -2 -2 -2 -1 0 0 -0 0 0 4 5 4 4 3 4 4 5 6 7 8 9 10 11 11 11 12 12 12 12 12 13 14 13 11 10 10 10 11 11 11 10 10 10 11 11 11 11 11 11 10 10 10 9 9 7 8 9 9
-1 -3 -3 -3 -2 -3 -3 -3 -3 -3 -3 -3 -3 -3 -3 -3 -3 -3 -1 -2 -2 -3 -2 -2 -2 -2 -1 -1 -1 0 1 1 1 2 3 3 4 4 3 3 4 5 6 7 8 8 9 9 10 11 12 13 14 14 15 14 14 13 13 13 13 12 12 12 12 12 13 13 12 12 11 10 9 9 9 10 9 9 9 8 7 6 6 7 8
-2 -3 -4 -4 -2 -3 -3 -3 -3 -3 -4 -5 -4 -4 -4 -4 -3 -3 -3 -2 -1 -0 -1 -0 -0 -0 1 0 0 1 0 0 0 2 2 3 3 3 4 5 6 6 7 8 8 9 8 9 9 9 10 11 11 10 11 11 11 12 10 10 12 13 12 12 11 11 11 10 9 9 8 9 11 11 11 10 9 7 8 8 7 7 6 5 5
-1 -2 -4 -5 -4 -3 -3 -3 -3 -5 -5 -6 -6 -6 -5 -4 -3 -3 -2 -2 -2 -1 -2 -2 -1 -1 -1 -1 -0 -1 -0 -0 0 1 3 4 5 6 7 8 8 7 7 6 6 7 6 7 8 8 9 9 10 11 12 13 12 11 10 9 7 7 7 8 9 10 10 9 9 10 10 10 10 9 8 7 7 7 6 5 6 5 5 3 3
-1 -2 -4 -5 -5 -5 -5 -5 -5 -6 -6 -6 -6 -7 -6 -6 -6 -6 -5 -4 -4 -3 -3 -4 -4 -4 -3 -3 -3 -2 -2 -1 -1 7 9 10 7 6 6 6 6 6 7 7 7 6 7 8 8 9 9 11 12 9 9 9 9 9 10 9 8 7 6 6 6 7 6 7 8 8 7 7 9 9 8 7 7 6 6 6 6 5 4 1 -1
-0 -1 -2 -3 -3 -4 -4 -4 -4 -5 -5 -6 -6 -7 -6 -5 -6 -6 -6 -6 -5 -4 -6 -5 -5 -6 -5 -5 -5 -4 -4 -3 5 8 9 10 9 6 6 7 7 7 7 7 8 9 8 8 9 9 9 9 9 9 8 9 8 8 7 7 7 8 8 7 6 6 7 7 7 8 8 8 8 8 8 8 7 7 8 7 7 5 4 3 2
-1 -1 -2 -3 -4 -5 -4 -4 -5 -5 -5 -5 -6 -5 -5 -6 -6 -6 -7 -6 -6 -6 -5 -5 -7 -6 -7 -8 -8 -6 -7 -4 5 7 9 10 11 8 6 7 7 6 7 7 7 5 5 5 4 5 5 6 8 3 1 2 5 6 6 6 5 6 6 7 9 6 6 6 7 7 7 8 8 8 8 8 9 6 5 6 5 5 4 4 3
-3 -2 -2 -3 -4 -4 -5 -5 -5 -5 -5 -6 -5 -6 -6 -6 -6 -6 -6 -5 -6 -6 -6 -6 -6 -9 -9 -9 -8 -8 -8 -4 4 7 9 11 11 9 5 5 4 3 2 2 2 2 2 3 3 1 -2 -2 -0 -0 -3 -3 -2 -1 -1 -1 -0 3 3 5 5 6 6 6 6 6 7 9 8 9 10 10 8 6 5 4 2 2 3 3 4
-3 -3 -3 -3 -4 -5 -6 -6 -6 -7 -7 -7 -7 -7 -7 -7 -7 -6 -6 -6 -6 -7 -7 -8 -9 -8 -10 -9 -8 -9 -9 -5 5 8 9 10 10 8 3 2 1 -0 -1 -2 -1 -1 0 3 3 2 -0 -3 -3 -1 -3 -5 -5 -4 -3 -3 -1 0 1 2 2 3 4 4 4 4 5 7 8 10 9 10 8 6 7 5 4 4 4 4 2
-4 -5 -3 -5 -6 -7 -7 -8 -8 -8 -8 -7 -8 -8 -8 -8 -8 -8 -7 -7 -7 -7 -7 -8 -9 -9 -9 -9 -9 -9 -9 0 4 6 8 9 9 2 1 -0 -2 -3 -3 -3 -3 -1 -1 -0 0 -0 -2 -4 1 1 1 2 0 -2 -2 -2 -1 -1 -0 4 8 9 6 7 7 7 7 6 11 7 8 8 7 7 8 8 6 4 4 3 2
-7 -5 -6 -7 -7 -8 -8 -8 -9 -8 -9 -9 -9 -9 -9 -10 -10 -9 -9 -9 -8 -9 -9 -9 -9 -9 -9 -9 -10 -10 -11 -7 3 5 7 8 6 0 0 -1 -2 -3 -3 -3 -2 -1 -0 1 2 2 0 -3 2 2 4 1 -1 0 0 -1 -1 -2 -2 -1 6 8 10 11 12 13 13 12 12 14 14 15 13 11 9 6 5 6 4 2 3
-7 -6 -8 -9 -9 -9 -9 -9 -9 -9 -9 -11 -11 -10 -11 -11 -11 -10 -9 -10 -10 -10 -10 -9 -9 -9 -10 -10 -11 -11 -11 -10 -7 3 6 7 3 -1 -1 -2 -4 -5 -4 -4 -3 -2 -1 0 -0 1 3 0 -0 -0 4 1 0 -2 -4 -5 -6 -5 -4 -3 -3 -1 8 9 10 11 11 11 10 10 11 11 10 8 4 2 2 3 1 0 -1
-7 -8 -9 -9 -9 -9 -9 -10 -10 -10 -11 -12 -12 -13 -12 -12 -11 -11 -11 -11 -11 -11 -10 -11 -11 -11 -11 -11 -9 -11 -12 -11 -9 2 6 6 2 -1 -1 -3 -4 -5 -5 -4 -3 -2 -1 2 1 1 -0 -1 -1 3 2 -1 -6 -8 -5 -4 -4 -5 -4 -2 -1 -1 -1 -1 -1 -0 1 3 2 2 3 6 6 6 4 3 3 2 -0 -1 -2
-7 -8 -9 -9 -10 -10 -10 -10 -11 -11 -12 -14 -14 -14 -12 -12 -13 -13 -13 -13 -13 -13 -13 -12 -13 -13 -12 -12 -13 -13 -13 -12 -10 2 5 6 6 -2 -3 -4 -6 -7 -7 -7 -6 -5 -4 -5 -1 -2 -1 -2 -0 2 1 2 -3 -2 -2 -5 -6 -7 -3 -2 -2 -2 -3 -3 -4 -3 -2 -1 0 1 -1 -0 1 2 2 2 2 2 1 -0 -1
-9 -10 -10 -11 -12 -12 -12 -12 -12 -13 -14 -15 -14 -14 -14 -14 -14 -15 -15 -14 -14 -14 -14 -14 -15 -15 -14 -13 -13 -13 -12 -12 -11 -6 3 4 5 -2 -5 -5 -6 -6 -6 -6 -6 -5 -3 -4 -5 -3 -4 -4 -3 -0 2 3 2 -1 -6 -8 -8 -3 -0 -5 -5 -5 -7 -7 -5 -4 -3 -3 -3 -2 -1 0 1 2 2 3 4 4 3 2 1
-11 -11 -12 -14 -14 -14 -13 -13 -13 -14 -15 -15 -16 -16 -15 -15 -15 -16 -15 -15 -16 -16 -16 -15 -15 -15 -14 -14 -14 -13 -11 -9 -11 -8 -5 1 3 3 -5 -5 -4 -6 -6 -6 -5 -5 -4 -6 -9 -6 -6 -5 -5 1 3 4 3 -5 -7 -0 4 -1 -6 -6 -8 -9 -9 -8 -8 -8 -7 -7 -6 -5 -4 -1 0 3 -0 -3 0 1 2 3 5
-13 -13 -14 -15 -15 -15 -14 -14 -14 -16 -16 -16 -17 -18 -17 -17 -17 -16 -18 -18 -18 -19 -18 -17 -17 -16 -16 -15 -14 -14 -13 -12 -9 -10 -8 -6 1 2 -4 -4 -2 -4 -4 -7 -8 -9 -8 -8 -6 -7 -6 -5 -2 3 3 -2 -5 -5 3 3 -4 -6 -7 -9 -8 -9 -10 -10 -10 -10 -9 -8 -7 -6 -5 -4 -4 -3 -4 -4 -4 -5 -1 2 3
-15 -15 -16 -17 -16 -16 -15 -15 -16 -17 -17 -16 -16 -17 -18 -18 -18 -17 -18 -18 -18 -19 -19 -19 -19 -19 -19 -17 -16 -15 -14 -13 -9 -10 -10 -10 -9 1 2 -4 -5 -6 -6 -10 -8 -7 -9 -12 -8 -6 -6 -2 2 2 -0 -8 -8 -3 -7 -7 -9 -9 -10 -10 -11 -11 -10 -11 -11 -11 -11 -9 -8 -7 -5 -5 -4 -5 -4 -5 -4 -4 -2 -1 0
-17 -18 -18 -18 -17 -17 -17 -17 -17 -17 -16 -17 -19 -19 -20 -20 -19 -20 -19 -19 -20 -20 -20 -19 -19 -18 -19 -18 -18 -16 -15 -14 -15 -12 -11 -11 -10 -7 -7 -7 -7 -7 -8 -9 -9 -10 -6 -6 -6 -6 -6 -5 -6 -9 -8 -9 -9 -9 -10 -10 -11 -13 -12 -12 -12 -12 -12 -12 -12 -11 -11 -9 -8 -7 -5 -7 -4 -3 -4 -4 -4 -3 -3 -2 -1
-20 -20 -19 -19 -19 -19 -20 -19 -19 -19 -20 -19 -19 -18 -18 -19 -20 -20 -20 -21 -21 -21 -20 -19 -19 -20 -19 -19 -19 -18 -18 -17 -16 -16 -11 -11 -10 -10 -9 -10 -10 -9 -9 -9 -9 -8 -7 -7 -7 -8 -9 -11 -10 -13 -12 -12 -11 -12 -13 -13 -15 -14 -15 -14 -14 -14 -14 -13 -11 -10 -10 -11 -9 -9 -8 -7 -8 -8 -6 -6 -5 -5 -5 -5 -5
-21 -21 -21 -21 -21 -20 -20 -19 -19 -20 -22 -20 -20 -19 -19 -21 -21 -20 -21 -22 -22 -22 -22 -21 -21 -20 -20 -21 -21 -20 -20 -19 -18 -18 -16 -14 -14 -11 -10 -10 -10 -11 -10 -11 -9 -11 -10 -11 -11 -13 -14 -14 -14 -14 -14 -12 -13 -15 -17 -17 -15 -16 -14 -17 -16 -15 -13 -13 -13 -13 -13 -13 -12 -11 -12 -12 -11 -9 -7 -6 -7 -8 -7 -7 -7
-22 -23 -23 -22 -21 -20 -20 -20 -20 -22 -22 -22 -22 -21 -21 -22 -23 -22 -24 -24 -24 -24 -23 -22 -22 -22 -22 -22 -22 -22 -21 -21 -20 -19 -17 -15 -14 -13 -13 -13 -18 -18 -16 -16 -17 -15 -18 -12 -14 -16 -17 -17 -17 -21 -22 -20 -18 -16 -19 -20 -17 -15 -13 -13 -13 -14 -15 -14 -14 -14 -13 -13 -13 -12 -11 -10 -9 -8 -8 -6 -5 -5 -4 -4 -4
-23 -25 -24 -23 -23 -21 -22 -22 -23 -23 -24 -23 -22 -21 -23 -24 -22 -22 -23 -23 -22 -22 -22 -21 -20 -21 -21 -21 -22 -22 -21 -21 -20 -16 -16 -13 -14 -15 -14 -15 -17 -17 -11 -11 -15 -20 -20 -20 -20 -19 -21 -19 -19 -22 -24 -23 -21 -20 -22 -21 -19 -18 -18 -20 -17 -16 -15 -14 -14 -13 -12 -12 -12 -12 -11 -12 -11 -11 -10 -9 -8 -8 -8 -7 -7
-25 -25 -24 -24 -24 -24 -24 -24 -24 -24 -24 -25 -24 -23 -21 -20 -21 -22 -22 -19 -18 -17 -17 -20 -19 -19 -19 -19 -19 -20 -21 -20 -16 -15 -15 -14 -13 -12 -11 -11 -12 -13 -12 -13 -16 -24 -26 -27 -24 -23 -21 -23 -23 -24 -24 -25 -24 -24 -24 -17 -17 -18 -17 -17 -17 -15 -14 -14 -15 -15 -15 -14 -14 -13 -12 -12 -11 -11 -9 -7 -9 -8 -7 -7 -7
-26 -26 -25 -25 -25 -25 -25 -25 -25 -26 -26 -25 -24 -24 -25 -23 -22 -21 -21 -20 -20 -18 -17 -17 -17 -17 -19 -20 -19 -17 -18 -18 -17 -16 -15 -14 -12 -12 -12 -12 -13 -14 -14 -16 -25 -28 -25 -26 -24 -26 -24 -26 -25 -25 -25 -25 -24 -24 -24 -23 -22 -19 -17 -17 -17 -16 -16 -16 -16 -15 -15 -15 -15 -15 -14 -14 -13 -13 -12 -10 -10 -9 -10 -9 -9
-28 -27 -27 -27 -26 -26 -27 -27 -26 -26 -26 -25 -25 -25 -26 -27 -28 -24 -22 -22 -21 -20 -19 -19 -18 -18 -18 -19 -20 -21 -19 -19 -18 -17 -16 -14 -13 -13 -13 -13 -13 -14 -15 -17 -25 -28 -29 -29 -28 -28 -27 -27 -25 -24 -25 -27 -26 -26 -25 -24 -23 -21 -19 -20 -18 -19 -19 -18 -17 -15 -15 -14 -14 -13 -12 -11 -10 -11 -12 -11 -11 -11 -10 -10 -9
-28 -28 -28 -27 -27 -26 -27 -27 -26 -27 -27 -27 -27 -26 -28 -28 -30 -30 -26 -23 -22 -23 -22 -21 -21 -20 -20 -20 -19 -20 -20 -20 -18 -17 -16 -16 -15 -15 -14 -13 -15 -16 -17 -25 -30 -29 -30 -29 -29 -29 -28 -28 -27 -28 -28 -28 -27 -26 -27 -24 -23 -22 -22 -21 -19 -20 -18 -17 -17 -16 -15 -15 -14 -13 -12 -12 -13 -14 -13 -12 -12 -11 -10 -10 -10
-29 -28 -28 -28 -28 -27 -27 -27 -28 -28 -28 -28 -28 -28 -28 -29 -30 -30 -30 -29 -28 -26 -25 -24 -24 -23 -23 -23 -22 -21 -20 -19 -19 -19 -18 -17 -15 -14 -16 -18 -18 -19 -20 -28 -30 -31 -31 -30 -28 -29 -29 -27 -27 -27 -27 -28 -27 -27 -25 -25 -24 -24 -24 -24 -23 -21 -19 -18 -18 -17 -16 -16 -15 -15 -15 -15 -14 -14 -14 -14 -13 -12 -12 -11 -10
-30 -28 -27 -28 -28 -28 -28 -29 -30 -29 -29 -29 -29 -29 -30 -29 -29 -29 -30 -31 -31 -31 -30 -28 -26 -25 -27 -25 -23 -22 -22 -22 -21 -20 -19 -17 -17 -18 -18 -26 -27 -28 -27 -30 -28 -31 -30 -29 -30 -29 -30 -29 -29 -28 -28 -30 -29 -27 -26 -25 -26 -25 -24 -23 -22 -22 -21 -20 -19 -18 -17 -16 -17 -15 -15 -15 -16 -16 -16 -16 -15 -13 -12 -11 -10
-31 -30 -30 -28 -28 -29 -30 -30 -30 -30 -30 -30 -29 -29 -29 -29 -30 -30 -30 -30 -31 -31 -31 -30 -29 -26 -26 -25 -24 -24 -24 -23 -22 -20 -19 -18 -18 -20 -26 -31 -32 -31 -29 -30 -30 -29 -28 -29 -29 -30 -30 -30 -30 -30 -30 -29 -29 -27 -29 -27 -25 -25 -25 -24 -22 -22 -22 -21 -19 -18 -17 -18 -17 -16 -16 -16 -16 -16 -16 -16 -15 -13 -12 -11 -9
-32 -30 -29 -29 -30 -30 -30 -30 -30 -30 -31 -30 -30 -30 -30 -30 -30 -31 -31 -31 -31 -31 -31 -31 -31 -30 -29 -27 -25 -26 -25 -24 -22 -20 -20 -19 -20 -22 -30 -30 -32 -32 -30 -31 -29 -29 -31 -32 -30 -31 -30 -31 -31 -29 -29 -29 -29 -29 -25 -25 -26 -26 -26 -26 -23 -21 -21 -20 -20 -19 -19 -19 -18 -18 -17 -16 -16 -15 -15 -14 -13 -12 -11 -9 -9
-32 -31 -31 -31 -31 -31 -31 -31 -31 -30 -30 -30 -30 -31 -31 -31 -32 -31 -31 -32 -32 -32 -33 -33 -30 -32 -32 -30 -28 -28 -27 -25 -25 -25 -24 -24 -24 -28 -31 -31 -30 -32 -31 -31 -31 -32 -32 -32 -32 -31 -32 -31 -30 -29 -29 -29 -28 -28 -27 -28 -26 -26 -23 -24 -22 -23 -22 -21 -20 -20 -19 -19 -18 -17 -16 -16 -16 -16 -15 -13 -12 -11 -10 -9 -9
-32 -30 -31 -31 -31 -31 -31 -31 -31 -31 -32 -31 -32 -32 -32 -33 -33 -33 -33 -33 -33 -33 -32 -34 -34 -32 -32 -30 -31 -28 -28 -30 -30 -30 -29 -29 -28 -29 -31 -33 -33 -32 -31 -32 -31 -32 -33 -33 -31 -32 -30 -31 -28 -29 -29 -28 -29 -29 -28 -28 -27 -26 -26 -25 -25 -24 -23 -23 -22 -21 -20 -19 -18 -18 -17 -17 -17 -16 -14 -11 -10 -10 -10 -10 -11
-32 -32 -32 -31 -31 -30 -31 -31 -31 -32 -32 -33 -33 -33 -33 -33 -34 -34 -34 -34 -35 -34 -34 -34 -33 -33 -32 -33 -31 -29 -30 -31 -31 -30 -30 -30 -29 -30 -32 -33 -33 -33 -33 -34 -34 -35 -34 -32 -31 -30 -30 -31 -30 -29 -29 -29 -29 -28 -28 -27 -27 -27 -26 -26 -25 -25 -24 -23 -22 -21 -20 -20 -19 -18 -18 -18 -17 -15 -14 -12 -10 -10 -10 -11 -11
-33 -32 -32 -32 -32 -32 -32 -32 -32 -33 -33 -33 -34 -34 -34 -34 -34 -34 -35 -35 -34 -34 -34 -34 -34 -34 -31 -30 -29 -29 -31 -32 -31 -31 -31 -30 -29 -30 -30 -32 -31 -33 -33 -32 -33 -33 -33 -31 -30 -30 -30 -30 -29 -29 -29 -29 -29 -28 -28 -26 -26 -26 -25 -26 -26 -25 -24 -23 -22 -22 -21 -20 -19 -20 -20 -19 -15 -14 -13 -12 -11 -10 -10 -11 -12
-33 -33 -33 -33 -32 -33 -33 -33 -33 -32 -34 -34 -35 -35 -34 -34 -35 -35 -35 -34 -34 -34 -34 -35 -34 -34 -31 -30 -30 -29 -31 -32 -31 -31 -32 -32 -31 -30 -29 -30 -31 -32 -34 -35 -35 -32 -31 -31 -30 -30 -30 -30 -30 -30 -29 -30 -29 -28 -27 -27 -27 -26 -26 -26 -25 -25 -25 -24 -23 -22 -22 -21 -20 -20 -19 -16 -17 -16 -14 -13 -12 -11 -11 -12 -13
-32 -32 -33 -33 -33 -34 -34 -34 -34 -35 -35 -35 -35 -33 -33 -34 -37 -35 -35 -34 -34 -34 -35 -35 -34 -34 -33 -32 -32 -31 -33 -34 -31 -32 -32 -32 -32 -31 -31 -31 -31 -33 -34 -34 -32 -32 -30 -30 -30 -30 -30 -30 -30 -29 -28 -28 -28 -28 -27 -27 -27 -27 -26 -26 -25 -24 -24 -24 -23 -23 -23 -22 -22 -22 -21 -19 -18 -16 -15 -14 -13 -12 -12 -13 -13
-32 -33 -33 -33 -33 -34 -33 -34 -34 -34 -36 -34 -34 -34 -34 -35 -36 -37 -36 -37 -35 -35 -35 -35 -34 -34 -34 -33 -32 -33 -36 -35 -36 -35 -33 -32 -32 -32 -32 -32 -31 -31 -33 -31 -31 -30 -30 -30 -30 -30 -30 -29 -28 -29 -28 -27 -27 -27 -27 -27 -26 -26 -26 -25 -25 -24 -23 -23 -23 -23 -23 -23 -23 -22 -21 -20 -19 -18 -18 -17 -15 -15 -15 -15 -14
-33 -33 -33 -34 -34 -35 -35 -35 -35 -35 -34 -34 -37 -37 -35 -38 -37 -37 -36 -36 -35 -36 -36 -35 -34 -34 -34 -35 -35 -35 -36 -36 -34 -34 -33 -34 -34 -33 -32 -32 -32 -32 -32 -31 -31 -31 -31 -30 -30 -30 -30 -29 -28 -28 -27 -27 -27 -26 -26 -26 -26 -26 -26 -25 -24 -23 -22 -23 -23 -23 -23 -23 -24 -23 -23 -21 -20 -20 -19 -18 -17 -16 -16 -16 -17
-33 -33 -33 -34 -34 -34 -34 -36 -34 -36 -37 -36 -36 -37 -37 -37 -38 -38 -36 -36 -36 -36 -36 -36 -36 -36 -35 -35 -35 -35 -35 -36 -35 -35 -33 -33 -33 -33 -32 -32 -33 -33 -32 -31 -30 -31 -30 -30 -29 -29 -29 -29 -28 -28 -27 -27 -26 -26 -25 -25 -24 -24 -23 -23 -22 -21 -22 -23 -23 -23 -24 -24 -24 -23 -23 -22 -22 -21 -19 -19 -18 -18 -18 -18 -18
-34 -35 -33 -34 -34 -34 -34 -34 -35 -35 -36 -35 -36 -36 -36 -37 -37 -36 -35 -35 -35 -35 -36 -36 -36 -36 -36 -36 -36 -36 -35 -35 -35 -34 -34 -34 -34 -33 -33 -34 -32 -32 -31 -30 -30 -30 -30 -29 -29 -28 -28 -28 -27 -27 -27 -26 -25 -25 -24 -23 -22 -22 -21 -20 -20 -21 -21 -22 -22 -23 -24 -24 -24 -24 -23 -23 -22 -22 -21 -21 -20 -20 -20 -20 -20
-33 -34 -34 -33 -35 -35 -35 -35 -35 -34 -35 -36 -37 -36 -36 -36 -37 -36 -38 -37 -38 -37 -37 -37 -37 -36 -36 -36 -35 -35 -35 -35 -34 -33 -33 -33 -33 -32 -33 -34 -32 -31 -31 -30 -30 -29 -29 -29 -28 -28 -28 -27 -27 -26 -26 -25 -24 -23 -23 -22 -21 -20 -20 -20 -21 -21 -21 -22 -22 -23 -23 -24 -24 -24 -23 -23 -23 -23 -23 -23 -21 -21 -21 -20 -20
-33 -34 -34 -34 -35 -35 -35 -34 -34 -35 -35 -36 -36 -36 -36 -37 -37 -37 -37 -38 -37 -37 -36 -36 -36 -35 -36 -35 -35 -35 -35 -34 -35 -35 -34 -33 -33 -32 -32 -31 -31 -31 -30 -30 -30 -29 -29 -29 -28 -27 -27 -26 -26 -25 -25 -24 -23 -22 -22 -21 -21 -20 -20 -20 -20 -21 -21 -21 -22 -23 -23 -24 -24 -24 -23 -23 -23 -23 -23 -23 -22 -21 -20 -20 -20
-34 -33 -34 -34 -35 -35 -34 -34 -35 -35 -35 -36 -36 -37 -36 -37 -37 -37 -37 -36 -37 -36 -35 -35 -35 -35 -35 -35 -35 -35 -35 -35 -35 -34 -34 -33 -32 -32 -31 -31 -31 -30 -30 -30 -30 -30 -29 -28 -27 -27 -26 -25 -24 -24 -23 -22 -22 -21 -21 -21 -20 -20 -20 -20 -20 -20 -21 -22 -22 -23 -23 -23 -24 -24 -23 -23 -23 -23 -22 -22 -21 -20 -19 -20 -19
-33 -33 -34 -34 -35 -35 -35 -36 -35 -35 -36 -36 -36 -37 -36 -36 -36 -36 -36 -36 -36 -35 -35 -35 -36 -36 -36 -36 -35 -35 -35 -35 -34 -34 -33 -32 -32 -31 -31 -31 -30 -30 -30 -30 -30 -29 -28 -27 -27 -26 -25 -24 -23 -22 -22 -21 -21 -21 -20 -20 -20 -20 -20 -19 -20 -20 -21 -21 -22 -23 -23 -24 -24 -24 -23 -22 -21 -21 -20 -20 -19 -19 -19 -19 -19